Location: Newark
(7.0858°N, 171.3717°E)
Time: 13:44:17
(UTC+00:00)

Vanguard 1 Rocket - Pass Details

Date: 04 December 2020
Orbit: 655 x 4222 km, 34.3° (Epoch: 23 January)

Event Time Altitude Azimuth Distance (km) Brightness Sun altitude
Rises 07:57:42 0° 214° (SW) 5,041 12.1 -24.1°
Reaches altitude 10° 08:00:37 10° 207° (SSW) 4,420 11.5 -24.8°
Maximum altitude 08:13:26 48° 135° (SE) 3,624 10.1 -27.8°
Enters shadow 08:21:37 36° 91° (E) 4,733 10.5 -29.6°
